Wind_Speed
17 15 14 12 11 10 9 4 9 5 7 7 7 8 7 7 6 6 6 6 7 8
19 19 14 11 10 11 9 7 4 5 7 7 9 9 9 8 8 7 7 7 8 10
22 19 16 13 13 11 9 10 6 7 9 10 10 10 11 9 9 9 8 7 8 8
20 18 16 16 16 16 14 13 12 12 12 12 12 12 12 11 7 10 10 8 8 9
15 16 16 17 16 16 17 17 17 16 16 16 15 15 16 15 14 14 12 12 12 12
9 10 14 16 14 14 15 17 17 18 19 19 18 18 17 17 17 16 16 15 16 15
11 12 13 11 13 14 14 15 17 18 19 20 20 21 20 20 21 20 18 18 16 13
6 6 7 8 10 11 13 15 18 19 20 21 21 23 25 24 24 24 20 14 12 11
11 10 10 13 13 13 14 16 18 19 21 22 24 26 28 28 26 8 25 21 21 18
8 8 6 6 8 11 13 15 16 18 21 22 24 26 27 29 11 19 22 30 20 20
7 5 3 1 2 4 6 8 10 13 16 18 22 25 26 27 24 25 23 34 29 26
6 4 2 2 3 5 7 9 11 12 13 15 16 17 21 18 27 37 36 31 31 33
8 5 3 1 3 5 7 11 12 13 13 16 17 19 18 11 17 25 30 31 34 32
7 5 3 2 3 5 8 11 13 14 16 17 17 16 19 17 19 22 24 25 24 24
Wind_Direction
211 215 221 219 240 237 235 200 132 163 214 219 215 213 214 216 214 204 215 222 232 262
206 217 220 226 212 232 252 269 193 193 212 217 217 217 215 219 207 205 209 210 213 219
203 208 220 215 222 234 245 230 235 212 214 217 220 219 220 223 217 213 217 224 197 220
196 200 213 219 222 225 229 232 229 227 225 224 223 225 223 231 216 211 221 230 213 219
200 197 213 220 225 227 227 228 226 224 226 226 227 223 222 223 224 219 222 223 219 214
208 204 223 232 229 235 235 235 235 230 229 230 229 228 228 229 228 224 224 224 224 226
213 221 226 239 245 241 241 245 242 240 238 235 234 233 232 231 232 229 225 226 230 232
188 204 227 239 240 241 245 248 246 243 243 243 242 239 234 230 228 223 228 236 246 252
203 210 223 244 251 255 254 252 251 247 245 245 247 246 239 233 231 215 65 22 341 311
206 217 228 245 251 254 258 258 259 254 252 251 249 252 251 245 171 108 27 335 301 274
131 128 132 160 295 293 288 284 285 279 274 270 266 259 255 255 205 205 226 241 236 221
118 106 81 4 325 307 300 297 295 291 285 290 286 282 270 239 216 215 218 227 239 230
140 141 143 223 296 300 301 288 294 293 287 291 288 286 285 248 213 219 229 243 240 239
154 161 177 224 285 303 301 304 304 298 293 289 276 278 285 277 226 221 220 226 234 239
Height
824 826 828 830 830 830 829 831 833 836 840 842 844 845 845 846 846 847 848 848 848 847
817 820 822 825 827 829 830 829 832 835 838 841 842 843 844 843 843 845 845 845 845 846
809 814 818 821 825 826 827 829 831 833 835 837 838 840 841 841 841 842 843 843 844 844
807 810 815 818 820 823 825 827 829 831 832 833 835 836 838 838 839 840 841 842 842 843
808 808 811 814 817 819 821 823 824 826 827 829 830 832 833 834 834 836 837 838 838 838
805 807 810 813 814 816 818 819 821 822 823 824 825 826 828 830 831 831 833 834 834 835
803 806 809 811 812 814 815 816 817 818 819 819 820 821 822 824 825 827 828 829 831 833
802 805 807 809 811 811 811 812 813 813 813 814 815 815 816 816 817 819 822 827 829 831
801 803 804 806 806 806 807 808 808 808 807 808 808 807 808 810 810 820 825 828 828 829
799 800 800 801 803 803 803 803 803 802 801 801 800 801 801 803 811 807 798 818 811 809
798 799 800 801 801 801 800 800 799 798 797 796 794 793 794 794 798 793 790 803 800 806
796 797 799 799 799 800 799 798 797 795 793 792 789 788 789 792 792 791 794 797 794 797
795 797 797 798 798 797 796 795 792 790 790 788 787 784 783 787 788 789 787 787 790 791
795 796 797 797 796 796 795 793 791 788 786 785 783 781 781 782 783 784 785 785 786 788